This demonstration page uses our WeatherBlox Daily Observations layout. Learn more.

Hourly Observations for April 20, 2016

Temp ( °F °C ) Dew Point ( °F °C ) Humidity (%) Winds ( mph kmh ) Pressure ( in mb ) Visibility ( mi km ) Precip ( " mm )
12:15 am 00:15 Cloudy with Mist and Fog 44 6.6 43 6 96 96 Calm 30.15 1021 1 1.60934 0 0
12:35 am 00:35 Cloudy with Mist and Fog 44 6.5 43 6 97 97 Calm 30.15 1021 1.25 2.011675 0 0
12:55 am 00:55 Cloudy with Mist and Fog 44 6.7 43 6.2 97 97 Calm 30.15 1021 4 6.43736 0 0
1:15 am 01:15 undefined N/A N/A N/A Calm N/A N/A 0 0
1:35 am 01:35 Cloudy with Mist and Fog 45 7 44 6.5 97 97 Calm 30.09 1019 4 6.43736 0 0
1:55 am 01:55 Cloudy with Mist and Fog 44 6.8 43 6.3 97 97 Calm 30.09 1019 4 6.43736 0 0
2:15 am 02:15 Cloudy with Mist and Fog 44 6.6 43 6.1 97 97 Calm 30.09 1019 2.5 4.02335 0 0
2:35 am 02:35 Cloudy with Mist and Fog 44 6.9 44 6.4 97 97 Calm 30.09 1019 2.5 4.02335 0 0
2:55 am 02:55 Cloudy with Mist and Fog 45 7 44 6.5 97 97 Calm 30.09 1019 4 6.43736 0 0
3:15 am 03:15 Cloudy with Mist and Fog 45 7 44 6.5 97 97 Calm 30.09 1019 3 4.82802 0 0
3:35 am 03:35 Cloudy 45 7 44 6.5 97 97 Calm 30.06 1018 7 11.26538 0 0
3:55 am 03:55 Cloudy 44 6.7 43 6.2 97 97 Calm 30.06 1018 10 16.0934 0 0
4:15 am 04:15 Cloudy 44 6.7 43 6.2 97 97 Calm 30.06 1018 7 11.26538 0 0
4:35 am 04:35 Cloudy with Mist and Fog 44 6.5 43 6 97 97 Calm 30.06 1018 5 8.0467 0 0
4:55 am 04:55 Cloudy 44 6.5 43 6 97 97 Calm 30.06 1018 7 11.26538 0 0
5:15 am 05:15 Cloudy with Mist and Fog 44 6.7 43 6.1 96 96 Calm 30.06 1018 5 8.0467 0 0
5:35 am 05:35 Cloudy 44 6.7 43 6.1 96 96 Calm 30.03 1017 7 11.26538 0 0
5:55 am 05:55 Cloudy 45 7 43 6.3 95 95 Calm 30.03 1017 10 16.0934 0 0
6:15 am 06:15 Cloudy 45 7 43 6.2 95 95 Calm 30.03 1017 10 16.0934 0 0
6:35 am 06:35 Cloudy 45 7 43 6.1 94 94 Calm 30.03 1017 10 16.0934 0 0
6:55 am 06:55 Mostly Cloudy 44 6.7 42 5.7 93 93 W 7 11 30 1016 10 16.0934 0 0
7:15 am 07:15 Partly Cloudy 43 6.3 42 5.4 94 94 W 6 9 30.03 1017 10 16.0934 0 0
7:35 am 07:35 Sunny 43 6 41 5 93 93 Calm 30.03 1017 10 16.0934 0 0
7:55 am 07:55 Partly Cloudy 43 6.3 42 5.4 94 94 Calm 30.03 1017 10 16.0934 0 0
8:15 am 08:15 Sunny 45 7 43 6 93 93 Calm 30 1016 10 16.0934 0 0
8:35 am 08:35 Sunny 47 8.1 44 6.7 91 91 Calm 30.03 1017 10 16.0934 0 0
8:55 am 08:55 Sunny 48 9.1 45 7.3 89 89 Calm 30.03 1017 10 16.0934 0 0
9:15 am 09:15 Sunny 50 9.8 46 7.6 86 86 Calm 30 1016 10 16.0934 0 0
9:35 am 09:35 Sunny 50 10.2 46 7.8 85 85 Calm 30 1016 10 16.0934 0 0
9:55 am 09:55 Mostly Cloudy 51 10.3 46 7.7 84 84 Calm 30 1016 10 16.0934 0 0
10:15 am 10:15 Mostly Cloudy 51 10.6 46 7.6 82 82 W 3 6 30 1016 10 16.0934 0 0
10:35 am 10:35 Partly Cloudy 53 11.4 47 8.1 80 80 W 7 11 30 1016 10 16.0934 0 0
10:55 am 10:55 Mostly Cloudy 52 11.2 46 7.6 79 79 W 8 13 30 1016 10 16.0934 0 0
11:15 am 11:15 Mostly Cloudy 53 11.5 44 6.9 74 74 W 8 13 29.97 1015 10 16.0934 0 0
11:35 am 11:35 Mostly Cloudy 55 12.8 45 7.2 69 69 W 7 11 29.94 1014 10 16.0934 0 0
11:55 am 11:55 Cloudy 55 12.7 44 6.7 67 67 W 5 7 29.94 1014 10 16.0934 0 0
12:15 pm 12:15 Mostly Cloudy 56 13.3 45 7.2 67 67 W 8 13 29.94 1014 10 16.0934 0 0
12:35 pm 12:35 Mostly Cloudy 57 14.1 44 6.8 62 62 W 9 15 29.94 1014 10 16.0934 0 0
12:55 pm 12:55 Mostly Cloudy 57 14.1 44 6.8 62 62 W 8 13 29.91 1013 10 16.0934 0 0
1:15 pm 13:15 Partly Cloudy 58 14.5 44 6.4 59 59 W 7 11 29.91 1013 10 16.0934 0 0
1:35 pm 13:35 Mostly Cloudy with Heavy Rain 50 10.1 44 6.4 78 78 W 5 7 29.94 1014 5 8.0467 0.04 1.016
1:55 pm 13:55 Mostly Cloudy 53 11.5 45 7.2 75 75 SW 5 7 29.94 1014 10 16.0934 0.04 1.016
2:15 pm 14:15 Partly Cloudy 55 12.6 45 7.4 71 71 WSW 8 13 29.91 1013 10 16.0934 0.01 0.254
2:35 pm 14:35 Mostly Cloudy 54 12.3 44 6.8 69 69 WSW 14 22 29.91 1013 10 16.0934 0.01 0.254
2:55 pm 14:55 Cloudy with Light Rain 52 11.1 44 6.5 74 74 WSW 17 28 29.94 1014 10 16.0934 0.01 0.254
3:15 pm 15:15 Cloudy with Light Rain 50 10.1 45 7 81 81 W 13 20 29.94 1014 10 16.0934 0 0
3:35 pm 15:35 Cloudy 52 11.2 46 7.7 79 79 W 7 11 29.94 1014 10 16.0934 0 0
3:55 pm 15:55 Cloudy 55 12.6 45 7.3 70 70 NW 13 20 29.91 1013 10 16.0934 0 0
4:15 pm 16:15 Partly Cloudy 57 13.9 45 7 63 63 NW 14 22 29.91 1013 10 16.0934 0 0
4:35 pm 16:35 Partly Cloudy 57 13.8 43 6.3 61 61 NW 15 24 29.91 1013 10 16.0934 0 0
4:55 pm 16:55 Partly Cloudy 57 14.1 44 6.4 60 60 NNW 13 20 29.91 1013 10 16.0934 0 0
5:15 pm 17:15 Mostly Cloudy 56 13.6 43 6 60 60 NNW 10 17 29.91 1013 10 16.0934 0 0
5:35 pm 17:35 Cloudy 56 13.4 43 6.2 62 62 NNW 13 20 29.91 1013 10 16.0934 0 0
5:55 pm 17:55 Mostly Cloudy 56 13.5 43 6 61 61 NNW 16 26 29.91 1013 10 16.0934 0 0
6:15 pm 18:15 Mostly Cloudy 55 13 43 6 63 63 NW 14 22 29.91 1013 10 16.0934 0 0
6:35 pm 18:35 Mostly Cloudy 54 12.3 43 6.1 66 66 NNW 10 17 29.91 1013 10 16.0934 0 0
6:55 pm 18:55 Sunny 54 12.2 43 6.3 67 67 NNW 12 19 29.91 1013 10 16.0934 0 0
7:15 pm 19:15 Sunny 53 11.6 44 6.8 73 73 NNW 10 17 29.94 1014 10 16.0934 0 0
7:35 pm 19:35 Mostly Cloudy 52 11.1 44 6.7 75 75 NNW 12 19 29.94 1014 10 16.0934 0 0
7:55 pm 19:55 Mostly Cloudy 51 10.8 45 7.1 78 78 NNW 8 13 29.94 1014 10 16.0934 0 0
8:15 pm 20:15 Cloudy 51 10.6 45 7.4 81 81 NNW 7 11 29.94 1014 10 16.0934 0 0
8:35 pm 20:35 Cloudy 51 10.3 45 7 80 80 NW 5 7 29.94 1014 10 16.0934 0 0
8:55 pm 20:55 Cloudy 50 10 46 7.5 85 85 NW 5 7 29.94 1014 10 16.0934 0 0
9:15 pm 21:15 Cloudy 50 9.8 45 7.1 83 83 NW 5 7 29.94 1014 10 16.0934 0 0
9:35 pm 21:35 Cloudy 49 9.6 45 7 84 84 NW 6 9 29.97 1015 10 16.0934 0 0
9:55 pm 21:55 Partly Cloudy 48 9 45 7 87 87 NW 5 7 29.97 1015 10 16.0934 0 0
10:15 pm 22:15 Clear 47 8.4 44 6.7 89 89 NW 5 7 30 1016 10 16.0934 0 0
10:35 pm 22:35 Clear 46 8 44 6.4 90 90 NW 7 11 30 1016 10 16.0934 0 0
10:55 pm 22:55 Clear 47 8.1 43 6.2 88 88 NW 7 11 30 1016 10 16.0934 0 0
11:15 pm 23:15 Clear 46 7.5 43 6 90 90 NW 7 11 30 1016 10 16.0934 0 0
11:35 pm 23:35 Clear 45 7.4 43 6 91 91 NW 8 13 30 1016 10 16.0934 0 0
11:55 pm 23:55 Clear 46 7.5 43 6 90 90 WNW 7 11 30 1016 10 16.0934 0 0

Powered by AerisWeather